Regional Weather Roundup
Issued by NWS

Home | Current Version | Previous Version | Text Only | Print | Product List | Glossary On
Versions: 1 2 3 4 5 6 7 8 9 10 11 12 13 14 15 16 17 18 19 20 21 22 23 24 25 26 27 28 29 30 31 32 33 34 35 36 37 38 39 40 41 42 43 44 45 46 47 48 49 50
525
ASUS45 KBOU 042207
RWRCO

WEATHER ROUNDUP FOR COLORADO
NATIONAL WEATHER SERVICE DENVER/BOULDER CO
400 PM MDT WED MAY 04 2016

NOTE: "FAIR" INDICATES FEW OR NO CLOUDS BELOW 12000 FEET WITH NO
SIGNIFICANT WEATHER AND/OR OBSTRUCTIONS TO VISIBILITY.

COZ001>005-013-030-031-042300-
...NORTHWEST COLORADO...

CITY           SKY/WX    TMP DP  RH WIND       PRES   REMARKS
CRAIG          FAIR      73  26  17 W8        30.17F
HAYDEN         FAIR      70  27  19 N13       30.19F
MEEKER         FAIR      72  19  13 SW6       30.17F
MOUNT WERNER   NOT AVBL
STEAMBOAT SPGS FAIR      69  26  19 W8        30.21F
WALDEN         FAIR      63  10  13 NW9       30.30F
$$

COZ006>008-011-042300-
...WEST CENTRAL VALLEYS...

CITY           SKY/WX    TMP DP  RH WIND       PRES   REMARKS
GRAND JUNCTION FAIR      76  30  18 W8        30.12F
MONTROSE       FAIR      76  26  15 N9        30.17F
EAGLE          SUNNY     73  18  12 NW12      30.20F
RIFLE          FAIR      76  26  15 W13G18    30.13F
DELTA          NOT AVBL
NUCLA          NOT AVBL
$$

COZ017>023-064>068-042300-
...SOUTHWEST COLORADO...

CITY           SKY/WX    TMP DP  RH WIND       PRES   REMARKS
DURANGO        FAIR      69  25  19 W8G17     30.25F
CORTEZ         FAIR      74  24  15 SW8       30.20F
PAGOSA SPRINGS FAIR      66  15  14 CALM      30.31F
TELLURIDE      PTSUNNY   60  22  22 CALM      30.37F
WOLF CREEK PAS FAIR      45  19  36 S6G20     30.56F
$$

COZ009-010-012-014-032>034-037-058>063-042300-
...CENTRAL COLORADO...

CITY           SKY/WX    TMP DP  RH WIND       PRES   REMARKS
ASPEN          FAIR      68  20  16 W9        30.25F
BUENA VISTA    FAIR      65  14  13 S3        30.26F
COPPER MTN     NOT AVBL
BERTHOUD PASS  FAIR      37  30  75 N7G20     30.54F
COTTONWOOD PAS FAIR      61  -6   6 E6G17     30.37F
GUNNISON       FAIR      66  16  14 W10G16    30.27F
KREMMLING      FAIR      70   9   9 S3        30.24F
LEADVILLE      PTSUNNY   58   7  13 VRB6      30.36F
MONARCH PASS   FAIR      45  10  24 MISG      30.62F
SALIDA         FAIR      72  10   9 N5        30.31F
SUNLIGHT       FAIR      55  25  30 CALM      30.48S
WILKERSON PASS CLOUDY    52  14  22 CALM      30.49F
$$

COZ069>075-042300-
...SAN LUIS VALLEY/SANGRE DE CRISTO MOUNTAINS...

CITY           SKY/WX    TMP DP  RH WIND       PRES   REMARKS
ALAMOSA        FAIR      68  23  18 S7        30.27F
LA VETA PASS   FAIR      59  19  21 S6        30.44F
SAGUACHE       FAIR      68  21  17 SE7G16    30.29F
$$

COZ035-036-038>040-042300-
...NORTHERN COLORADO FRONT RANGE...

CITY           SKY/WX    TMP DP  RH WIND       PRES   REMARKS
DENVER INTL AP FAIR      73  28  18 SE7       30.16F
DMNS CITY PARK   N/A     73  27  18 E5G16     30.14F
AURORA         FAIR      73  29  20 NE8       30.18F
FRONT RANGE AP NOT AVBL
ERIE MUNI ARPT FAIR      73  29  20 E8        30.15F
BOULDER MUN AP FAIR      72  32  23 NE6       30.15F
CENTENNIAL     FAIR      71  27  19 VRB7      30.18F
BROOMFIELD     MOSUNNY   73  28  19 NE6       30.18F
FORT COLLINS   FAIR      75  39  27 SE12G18   30.13F
LONGMONT       FAIR      76  31  19 SE5       30.16F
$$

COZ041-046-047-076>085-087-088-042300-
...PIKES PEAK/PALMER DIVIDE AND SOUTHERN FOOTHILLS...

CITY           SKY/WX    TMP DP  RH WIND       PRES   REMARKS
COLO. SPRINGS  FAIR      72  24  16 S14G21    30.21F
A. F. ACADEMY  FAIR      70  25  18 S14       30.20F
SCHRIEVER AFB  NOT AVBL
ELLICOTT       FAIR     N/A N/A N/A S14       30.20F
FALCON         NOT AVBL
FORT CARSON    FAIR      73  29  20 SE14G20   30.18F
LIMON          FAIR      72  34  24 NE8       30.18F
MONUMENT HILL  FAIR      64  27  24 NE5       30.26F
TRINIDAD       FAIR      74  25  16 E10       30.18F
$$

COZ042>045-048>051-090-091-042300-
...NORTHEAST COLORADO...

CITY           SKY/WX    TMP DP  RH WIND       PRES   REMARKS
GREELEY ARPT   FAIR      73  37  27 SE5       30.14F
AKRON          FAIR      72  36  26 E7        30.15F
BURLINGTON     FAIR      74  34  23 E5        30.14F
WRAY           NOT AVBL
STERLING       FAIR      75  41  29 N3        30.11F
HOLYOKE        NOT AVBL
FORT MORGAN    FAIR      76  35  22 E3        30.14F
$$

COZ086-089-092>099-042300-
...SOUTHEAST COLORADO...

CITY           SKY/WX    TMP DP  RH WIND       PRES   REMARKS
PUEBLO         FAIR      79  29  16 E14       30.12F
LA JUNTA       FAIR      78  32  18 CALM      30.13F
LAMAR          FAIR      80  39  23 N6        30.10F
SPRINGFIELD      N/A     75  35  23 N6        30.14F
$$




USA.gov is the U.S. government's official web portal to all federal, state and local government web resources and services.